Thermopolis, WY

11:23 PM MDT on April 21, 2018 (GMT -0600)
Thermopolis

Weather History for KTBX - November, 2012

Change the Weather History Date:

Thursday, November 15, 2012

  Actual Average (KWRL) Record (KWRL)
Temperature  
Mean Temperature 29 °F -  
Max Temperature 32 °F 43 °F 69 °F (1963)
Min Temperature 26 °F 18 °F -21 °F (2014)
Degree Days  
Heating Degree Days 36    
Moisture  
Dew Point 22 °F    
Average Humidity 77    
Maximum Humidity 86    
Minimum Humidity 60    
Precipitation  
Precipitation 0.00 in - - ()
Sea Level Pressure  
Sea Level Pressure 30.30 in    
Wind  
Wind Speed 12 mph ()    
Max Wind Speed 21 mph    
Max Gust Speed 24 mph    
Visibility 10.0 miles    
Events      
Averages and records for this station are not official NWS values.
T = Trace of Precipitation, MM = Missing Value Source: Averaged Metar Reports

Daily Weather History Graph

Daily Weather History Graph

Search for Another Location

Airport or City:

Astronomy

Nov. 15, 2012 Rise Set
Actual Time 7:07 AM MST 4:47 PM MST
Civil Twilight 6:36 AM MST 5:18 PM MST
Nautical Twilight 6:01 AM MST 5:53 PM MST
Astronomical Twilight 5:27 AM MST 6:26 PM MST
Moon 9:08 AM MST (11/15) 6:40 PM MST (11/15)
Length of Visible Light 10h 42m
Length of Day
9h 40m
Waxing Crescent, 5% of the Moon is Illuminated
Nov 15
Waxing Crescent
Nov 20
First Quarter
Nov 28
Full
Dec 6
Last Quarter
Dec 13
New

Hourly Weather History & Observations

Time (MST) Temp. Windchill Dew Point Humidity Pressure Visibility Wind Dir Wind Speed Gust Speed Precip Events Conditions
12:15 AM 30.2 °F 18.9 °F 23.0 °F 75% 30.31 in 10.0 mi NW 16.1 mph - N/A   Overcast
12:35 AM 30.2 °F 19.3 °F 23.0 °F 75% 30.31 in 10.0 mi NW 15.0 mph - N/A   Overcast
12:55 AM 30.2 °F 20.2 °F 23.0 °F 75% 30.31 in 10.0 mi NW 12.7 mph - N/A   Overcast
1:15 AM 30.2 °F 21.3 °F 23.0 °F 75% 30.32 in 10.0 mi NW 10.4 mph - N/A   Overcast
1:35 AM 28.4 °F 19.1 °F 21.2 °F 74% 30.32 in 10.0 mi NW 10.4 mph - N/A   Overcast
1:55 AM 28.4 °F 20.4 °F 21.2 °F 74% 30.32 in 10.0 mi NW 8.1 mph - N/A   Overcast
2:15 AM 30.2 °F 26.7 °F 23.0 °F 75% 30.33 in 10.0 mi WNW 3.5 mph - N/A   Overcast
2:35 AM 30.2 °F - 23.0 °F 75% 30.33 in 10.0 mi Calm Calm - N/A   Overcast
2:55 AM 30.2 °F - 23.0 °F 75% 30.34 in 10.0 mi Calm Calm - N/A   Overcast
3:15 AM 30.2 °F 26.7 °F 23.0 °F 75% 30.33 in 10.0 mi SSE 3.5 mph - N/A   Overcast
3:35 AM 28.4 °F 19.7 °F 23.0 °F 80% 30.33 in 10.0 mi ESE 9.2 mph - N/A   Overcast
3:55 AM 28.4 °F 19.7 °F 24.8 °F 86% 30.33 in 10.0 mi SE 9.2 mph - N/A   Mostly Cloudy
4:15 AM 28.4 °F 19.7 °F 24.8 °F 86% 30.33 in 10.0 mi SE 9.2 mph - N/A   Mostly Cloudy
4:35 AM 28.4 °F 19.1 °F 23.0 °F 80% 30.33 in 10.0 mi East 10.4 mph - N/A   Scattered Clouds
4:55 AM 30.2 °F 20.8 °F 23.0 °F 75% 30.33 in 10.0 mi East 11.5 mph - N/A   Clear
5:15 AM 28.4 °F 19.1 °F 23.0 °F 80% 30.33 in 10.0 mi ESE 10.4 mph - N/A   Clear
5:35 AM 28.4 °F 18.5 °F 23.0 °F 80% 30.34 in 10.0 mi ESE 11.5 mph - N/A   Clear
5:55 AM 28.4 °F 17.5 °F 23.0 °F 80% 30.34 in 10.0 mi ESE 13.8 mph - N/A   Clear
6:15 AM 26.6 °F 15.7 °F 23.0 °F 86% 30.34 in 10.0 mi SE 12.7 mph - N/A   Clear
6:35 AM 26.6 °F 15.2 °F 23.0 °F 86% 30.34 in 10.0 mi SE 13.8 mph - N/A   Clear
6:55 AM 26.6 °F 14.7 °F 23.0 °F 86% 30.34 in 10.0 mi ESE 15.0 mph - N/A   Clear
7:15 AM 26.6 °F 13.8 °F 23.0 °F 86% 30.34 in 10.0 mi ESE 17.3 mph - N/A   Clear
7:35 AM 26.6 °F 14.3 °F 23.0 °F 86% 30.34 in 10.0 mi ESE 16.1 mph - N/A   Clear
7:55 AM 26.6 °F 14.7 °F 23.0 °F 86% 30.35 in 10.0 mi ESE 15.0 mph - N/A   Clear
8:15 AM 26.6 °F 13.4 °F 23.0 °F 86% 30.35 in 10.0 mi ESE 18.4 mph - N/A   Clear
8:35 AM 26.6 °F 13.8 °F 23.0 °F 86% 30.35 in 10.0 mi SE 17.3 mph - N/A   Clear
8:55 AM 26.6 °F 14.3 °F 23.0 °F 86% 30.35 in 10.0 mi SE 16.1 mph - N/A   Clear
9:15 AM 26.6 °F 13.8 °F 23.0 °F 86% 30.36 in 10.0 mi ESE 17.3 mph - N/A   Clear
9:35 AM 26.6 °F 14.3 °F 23.0 °F 86% 30.36 in 10.0 mi ESE 16.1 mph - N/A   Scattered Clouds
9:55 AM 26.6 °F 14.7 °F 23.0 °F 86% 30.35 in 10.0 mi ESE 15.0 mph - N/A   Clear
10:15 AM 26.6 °F 14.3 °F 23.0 °F 86% 30.36 in 10.0 mi SE 16.1 mph - N/A   Clear
10:35 AM 26.6 °F 15.2 °F 23.0 °F 86% 30.36 in 10.0 mi SE 13.8 mph - N/A   Clear
10:55 AM 26.6 °F 14.7 °F 23.0 °F 86% 30.35 in 10.0 mi SE 15.0 mph - N/A   Clear
11:15 AM 28.4 °F 17.0 °F 23.0 °F 80% 30.35 in 10.0 mi SE 15.0 mph - N/A   Clear
11:35 AM 28.4 °F 16.2 °F 24.8 °F 86% 30.34 in 10.0 mi SE 17.3 mph - N/A   Clear
11:55 AM 28.4 °F 16.6 °F 23.0 °F 80% 30.33 in 10.0 mi SE 16.1 mph - N/A   Clear
12:15 PM 28.4 °F 16.6 °F 23.0 °F 80% 30.32 in 10.0 mi SE 16.1 mph - N/A   Clear
12:35 PM 28.4 °F 16.6 °F 23.0 °F 80% 30.31 in 10.0 mi SE 16.1 mph - N/A   Clear
12:55 PM 28.4 °F 16.2 °F 23.0 °F 80% 30.30 in 10.0 mi SE 17.3 mph - N/A   Clear
1:15 PM 30.2 °F 19.3 °F 23.0 °F 75% 30.30 in 10.0 mi SE 15.0 mph - N/A   Clear
1:35 PM 30.2 °F 19.3 °F 23.0 °F 75% 30.29 in 10.0 mi SE 15.0 mph 19.6 mph N/A   Clear
1:55 PM 30.2 °F 18.1 °F 21.2 °F 69% 30.28 in 10.0 mi SE 18.4 mph - N/A   Clear
2:15 PM 32.0 °F 20.1 °F 23.0 °F 69% 30.28 in 10.0 mi SE 19.6 mph 24.2 mph N/A   Clear
2:35 PM 32.0 °F 21.6 °F 21.2 °F 64% 30.28 in 10.0 mi SE 15.0 mph - N/A   Clear
2:55 PM 32.0 °F 21.6 °F 21.2 °F 64% 30.27 in 10.0 mi SE 15.0 mph - N/A   Clear
3:15 PM 30.2 °F 19.3 °F 21.2 °F 69% 30.26 in 10.0 mi SE 15.0 mph - N/A   Clear
3:35 PM 32.0 °F 20.5 °F 23.0 °F 69% 30.26 in 10.0 mi SE 18.4 mph - N/A   Clear
3:55 PM 30.2 °F 17.8 °F 23.0 °F 75% 30.26 in 10.0 mi SE 19.6 mph - N/A   Clear
4:15 PM 30.2 °F 18.1 °F 23.0 °F 75% 30.26 in 10.0 mi SE 18.4 mph - N/A   Clear
4:35 PM 30.2 °F 18.1 °F 21.2 °F 69% 30.26 in 10.0 mi SE 18.4 mph - N/A   Clear
4:55 PM 28.4 °F 16.6 °F 21.2 °F 74% 30.26 in 10.0 mi SE 16.1 mph - N/A   Clear
5:15 PM 28.4 °F 16.2 °F 21.2 °F 74% 30.26 in 10.0 mi SE 17.3 mph - N/A   Clear
5:35 PM 28.4 °F 18.0 °F 21.2 °F 74% 30.26 in 10.0 mi SE 12.7 mph - N/A   Clear
5:55 PM 28.4 °F 18.5 °F 21.2 °F 74% 30.26 in 10.0 mi SE 11.5 mph - N/A   Clear
6:15 PM 30.2 °F 18.5 °F 17.6 °F 60% 30.26 in 10.0 mi SSE 17.3 mph - N/A   Clear
6:35 PM 30.2 °F 17.4 °F 19.4 °F 64% 30.26 in 10.0 mi SSE 20.7 mph - N/A   Clear
6:55 PM 30.2 °F 18.1 °F 19.4 °F 64% 30.26 in 10.0 mi SSE 18.4 mph 23.0 mph N/A   Clear
8:35 PM 28.4 °F 18.5 °F 21.2 °F 74% 30.25 in 10.0 mi SSE 11.5 mph - N/A   Clear
8:55 PM 28.4 °F 18.0 °F 21.2 °F 74% 30.25 in 10.0 mi SSE 12.7 mph - N/A   Clear
9:15 PM 28.4 °F 17.0 °F 21.2 °F 74% 30.25 in 10.0 mi SSE 15.0 mph 18.4 mph N/A   Clear
9:35 PM 28.4 °F 18.5 °F 21.2 °F 74% 30.25 in 10.0 mi SSE 11.5 mph - N/A   Clear
9:55 PM 28.4 °F 18.5 °F 21.2 °F 74% 30.25 in 10.0 mi SSE 11.5 mph - N/A   Clear
10:15 PM 28.4 °F 18.5 °F 21.2 °F 74% 30.24 in 10.0 mi SSE 11.5 mph - N/A   Clear
10:35 PM 28.4 °F 18.0 °F 19.4 °F 69% 30.24 in 10.0 mi SSE 12.7 mph - N/A   Clear
10:55 PM 28.4 °F 17.5 °F 19.4 °F 69% 30.23 in 10.0 mi SSE 13.8 mph 18.4 mph N/A   Clear
11:15 PM 26.6 °F 15.7 °F 21.2 °F 80% 30.23 in 10.0 mi SSE 12.7 mph - N/A   Clear
11:35 PM 26.6 °F 15.2 °F 21.2 °F 80% 30.22 in 10.0 mi SE 13.8 mph - N/A   Clear
11:55 PM 28.4 °F 18.0 °F 21.2 °F 74% 30.22 in 10.0 mi SSE 12.7 mph - N/A   Clear